This demonstration page uses our WeatherBlox Daily Observations layout. Learn more.

Left ArrowRight Arrow

41.55636, -103.73856

Hourly Observations for August 8, 2022

Temp ( °F °C ) Dew Point ( °F °C ) Humidity (%) Winds ( mph kmh ) Pressure ( in mb ) Visibility ( mi km ) Precip ( " mm )
12:58 am 00:58 Clear 64 17.5 54 12.4 72 72 SSW 9 15 30.09 1019 10 16 0.00 0.00
1:58 am 01:58 Clear 64 17.9 54 12.3 70 70 S 14 22 30.08 1019 10 16 0.00 0.00
2:58 am 02:58 Clear 64 18 56 13.1 73 73 S 17 28 30.06 1018 10 16 0.00 0.00
3:58 am 03:58 Clear 64 17.6 57 14.1 80 80 SSW 16 26 30.06 1018 10 16 0.00 0.00
4:58 am 04:58 Clear 64 17.6 58 14.7 83 83 WSW 10 17 30.04 1017 10 16 0.00 0.00
5:58 am 05:58 Mostly Sunny 63 17.3 58 14.6 84 84 SW 3 6 30.05 1018 10 16 0.00 0.00
6:58 am 06:58 Sunny 65 18.4 60 15.3 82 82 SSW 9 15 30.06 1018 10 16 0.00 0.00
7:58 am 07:58 Sunny 70 21.1 60 15.4 70 70 Calm 30.06 1018 10 16 0.00 0.00
8:58 am 08:58 Sunny 78 25.7 56 13.2 46 46 WSW 9 15 30.04 1017 10 16 0.00 0.00
9:58 am 09:58 Sunny 83 28.1 45 7.3 27 27 SSW 15 24 30.03 1017 10 16 0.00 0.00
10:58 am 10:58 Sunny 85 29.2 48 8.8 28 28 WSW 15 24 30.03 1017 10 16 0.00 0.00
11:58 am 11:58 Sunny 86 29.9 49 9.4 28 28 SW 13 20 30.01 1016 10 16 0.00 0.00
12:58 pm 12:58 Sunny 89 31.7 51 10.4 27 27 S 16 26 29.97 1015 10 16 0.00 0.00
1:58 pm 13:58 Partly Cloudy 87 30.5 50 9.9 28 28 SSW 13 20 29.97 1015 10 16 0.00 0.00
2:58 pm 14:58 Partly Cloudy 90 32.4 50 9.8 25 25 SW 17 28 29.93 1014 10 16 0.00 0.00
3:58 pm 15:58 Mostly Cloudy 90 32 47 8.2 23 23 S 8 13 29.90 1012 10 16 0.00 0.00
4:58 pm 16:58 Mostly Cloudy 91 32.7 47 8.2 22 22 SSW 15 24 29.89 1012 10 16 0.00 0.00
5:58 pm 17:58 Cloudy with Light Rain 79 26.3 57 13.7 46 46 S 6 9 29.93 1014 10 16 0.01 0.25
6:58 pm 18:58 Sunny 80 26.6 49 9.4 34 34 SSE 13 20 29.92 1013 10 16 0.01 0.13
7:58 pm 19:58 Sunny 75 23.9 55 12.5 49 49 S 13 20 29.92 1013 10 16 0.00 0.00
8:58 pm 20:58 Clear 76 24.2 55 12.5 48 48 SSW 18 30 29.91 1013 10 16 0.00 0.00
9:58 pm 21:58 Clear 73 22.6 57 13.9 58 58 SSW 20 31 29.92 1013 10 16 0.00 0.00
10:58 pm 22:58 Clear 72 22 56 13.1 57 57 SSW 20 31 29.92 1013 10 16 0.00 0.00
11:58 pm 23:58 Clear 72 22.3 56 13.1 56 56 SSW 24 39 29.93 1014 10 16 0.00 0.00

Powered by AerisWeather